FW2442 Weather Reports


Display with metric or nautical units.
time (UTC)temp
F
wind
direction
speed
MPH
gust
MPH
rain 1hr
in
rain 24hr
in
rain mn
in
humidity
%
barometer
mb
20260504194548 65 0.0 0.0 0.00 0.00 0.00 48 1015.2
20260504193519 66 0.0 0.0 0.00 0.00 0.00 47 1015.2
20260504192519 66 0.0 0.0 0.00 0.00 0.00 47 1015.2
20260504191519 67 0.0 0.0 0.00 0.00 0.00 46 1015.1
20260504190518 67 0.0 0.0 0.00 0.00 0.00 46 1015.0
20260504185519 67 0.0 0.0 0.00 0.00 0.00 46 1015.0
20260504184518 67 0.0 0.0 0.00 0.00 0.00 46 1014.9
20260504183518 67 0.0 0.0 0.00 0.00 0.00 47 1014.9
20260504182517 67 0.0 0.0 0.00 0.00 0.00 47 1014.8
20260504181517 68 0.0 0.0 0.00 0.00 0.00 47 1014.7
20260504180516 69 0.0 0.0 0.00 0.00 0.00 45 1014.6
20260504175517 70 0.0 0.0 0.00 0.00 0.00 44 1014.4
20260504174537 70 0.0 0.0 0.00 0.00 0.00 43 1014.3
20260504173516 70 0.0 0.0 0.00 0.00 0.00 44 1014.2
20260504172518 70 0.0 0.0 0.00 0.00 0.00 44 1014.2
20260504171521 71 95 0.0 2.0 0.00 0.00 0.00 44 1014.3
20260504170523 72 88 0.0 2.0 0.00 0.00 0.00 43 1014.1
20260504150522 77 67 1.0 3.0 0.00 0.00 0.00 36 1013.9
20260504140522 78 59 3.0 6.0 0.00 0.00 0.00 36 1014.2
20260504130521 78 51 3.0 6.0 0.00 0.00 0.00 34 1014.5
20260504110522 76 58 1.0 2.0 0.00 0.00 0.00 40 1015.6
20260504100530 73 46 1.0 2.0 0.00 0.00 0.00 43 1016.2
20260504081525 65 0.0 0.0 0.00 0.00 0.00 58 1016.6
20260504080545 64 336 0.0 1.0 0.00 0.00 0.00 60 1016.6
20260504050525 52 0.0 0.0 0.00 0.00 0.00 66 1017.1
20260504045526 51 0.0 0.0 0.00 0.00 0.00 67 1017.0
20260504044525 51 0.0 0.0 0.00 0.00 0.00 66 1017.1
20260504043524 51 0.0 0.0 0.00 0.00 0.00 66 1017.1
20260504042524 51 0.0 0.0 0.00 0.00 0.00 66 1017.0
20260504041545 50 0.0 0.0 0.00 0.00 0.00 66 1016.9
20260504040525 50 0.0 0.0 0.00 0.00 0.00 64 1016.8
20260504035525 50 0.0 0.0 0.00 0.00 0.00 63 1016.8
20260504034523 50 0.0 0.0 0.00 0.00 0.00 62 1016.9
20260504033527 50 0.0 0.0 0.00 0.00 0.00 61 1016.9
20260504032526 49 0.0 0.0 0.00 0.00 0.00 62 1017.0
20260504031525 49 0.0 0.0 0.00 0.00 0.00 61 1017.0
20260504030530 49 0.0 0.0 0.00 0.00 0.00 60 1017.1
20260504025527 50 0.0 0.0 0.00 0.00 0.00 60 1017.1
20260504024601 50 0.0 0.0 0.00 0.00 0.00 60 1017.0
20260504023527 49 0.0 0.0 0.00 0.00 0.00 61 1017.0
20260504022546 48 0.0 0.0 0.00 0.00 0.00 63 1017.1
20260504021527 47 0.0 0.0 0.00 0.00 0.00 64 1017.1
20260504020526 47 0.0 0.0 0.00 0.00 0.00 63 1017.1
20260504015525 48 0.0 0.0 0.00 0.00 0.00 62 1016.9
20260504014527 49 0.0 0.0 0.00 0.00 0.00 62 1017.0
20260504013523 48 0.0 0.0 0.00 0.00 0.00 62 1017.1
20260504012524 47 0.0 0.0 0.00 0.00 0.00 64 1017.1
20260504011547 46 0.0 0.0 0.00 0.00 0.00 67 1017.1
20260504010525 46 0.0 0.0 0.00 0.00 0.00 66 1017.1
20260504005524 46 0.0 0.0 0.00 0.00 0.00 65 1017.2
20260504004524 48 0.0 0.0 0.00 0.00 0.00 62 1017.2
20260504003526 49 0.0 0.0 0.00 0.00 0.00 60 1017.2
20260504002543 49 0.0 0.0 0.00 0.00 0.00 59 1017.2
20260504001525 50 0.0 0.0 0.00 0.00 0.00 56 1017.2
20260504000524 51 0.0 0.0 0.00 0.00 0.00 56 1017.2
20260503235524 51 0.0 0.0 0.00 0.00 0.00 54 1017.2
20260503234524 52 0.0 0.0 0.00 0.00 0.00 53 1017.4
20260503233524 52 0.0 0.0 0.00 0.00 0.00 53 1017.3
20260503232526 52 0.0 0.0 0.00 0.00 0.00 53 1017.3
20260503231525 51 0.0 0.0 0.00 0.00 0.00 53 1017.3
20260503230524 52 0.0 0.0 0.00 0.00 0.00 53 1017.4
20260503225524 52 199 0.0 3.0 0.00 0.00 0.00 52 1017.6
20260503224524 52 0.0 0.0 0.00 0.00 0.00 52 1017.7
20260503223527 52 0.0 0.0 0.00 0.00 0.00 52 1017.8
20260503222526 52 0.0 0.0 0.00 0.00 0.00 53 1017.8
20260503221606 52 200 0.0 2.0 0.00 0.00 0.00 52 1017.8
20260503220522 52 0.0 0.0 0.00 0.00 0.00 52 1017.9
20260503215544 52 0.0 0.0 0.00 0.00 0.00 53 1017.9
20260503214522 53 0.0 0.0 0.00 0.00 0.00 51 1017.9
20260503213522 54 0.0 0.0 0.00 0.00 0.00 50 1018.1
20260503212524 53 0.0 0.0 0.00 0.00 0.00 51 1018.1
20260503211528 52 0.0 0.0 0.00 0.00 0.00 52 1018.1
20260503210604 52 0.0 0.0 0.00 0.00 0.00 54 1018.1
20260503205524 52 0.0 0.0 0.00 0.00 0.00 55 1018.3
20260503204544 52 0.0 0.0 0.00 0.00 0.00 55 1018.3
20260503203523 53 0.0 0.0 0.00 0.00 0.00 52 1018.4
20260503202544 53 0.0 0.0 0.00 0.00 0.00 52 1018.4
20260503201522 53 0.0 0.0 0.00 0.00 0.00 52 1018.4
20260503200525 53 0.0 0.0 0.00 0.00 0.00 52 1018.5
20260503195524 53 0.0 0.0 0.00 0.00 0.00 53 1018.5